Regional Weather Roundup
Issued by NWS

Home | Current Version | Previous Version | Text Only | Print | Product List | Glossary Off
Versions: 1 2 3 4 5 6 7 8 9 10 11 12 13 14 15 16 17 18 19 20 21 22 23 24 25 26 27 28 29 30 31 32 33 34 35 36 37 38 39 40 41 42 43 44 45 46 47 48 49 50

000
ASUS45 KABQ 261010
RWRNM
NEW MEXICO REGIONAL WEATHER ROUNDUP
NATIONAL WEATHER SERVICE ALBUQUERQUE NM
300 AM MST SUN FEB 26 2017

NOTE: "FAIR" MEANS FEW OR NO CLOUDS BELOW 12,000 FEET AGL WITH NO
       SIGNIFICANT WEATHER OR OBSTRUCTIONS TO VISION.

      THIS PRODUCT IS RELEASED AS TWO VERSIONS.  ONE VERSION NEAR
      THE TOP OF THE HOUR CONTAINING PRELIMINARY DATA FROM ALBUQUERQUE
      AND OTHER STATIONS.  A FINAL VERSION WITH ADDITIONAL DATA IS
      ISSUED ABOUT 10 MINUTES AFTER THE HOUR.

NMZ501-503-504-510>518-261100-
NORTHWEST PLATEAU/NORTHCENTRAL MOUNTAINS

CITY           SKY/WX    TMP DP  RH WIND       PRES   REMARKS
FARMINGTON     CLOUDY    26  14  60 CALM      29.87S
LOS ALAMOS     MOCLDY    31   8  38 SW7       29.85S WCI  24
SANTA FE       CLOUDY    28   6  39 CALM      29.84F
TAOS           FAIR      18  -2  41 NW3       29.84S
ANGEL FIRE     CLOUDY    24   4  43 SW8G17    29.81F WCI  15

$$
NMZ402-403-502-505>509-261100-
WESTCENTRAL MOUNTAINS/SOUTHWEST MOUNTAINS

CITY           SKY/WX    TMP DP  RH WIND       PRES   REMARKS
GALLUP         LGT SNOW  29  24  82 W13       29.93S WCI  19
GRANTS         MOCLDY    32  15  50 NW16G23   29.90S WCI  21
SILVER CITY    CLOUDY    39  10  30 NW12      29.93F WCI  31

$$
NMZ407-409-411-412-261100-
SOUTHERN DESERTS

CITY           SKY/WX    TMP DP  RH WIND       PRES   REMARKS
DEMING         FAIR      37  15  40 W7        29.93S WCI  32
LAS CRUCES     FAIR      40   8  27 W7        29.94R WCI  35
HOLLOMAN AFB   CLOUDY    51   8  17 S6        29.93S
ALAMOGORDO     FAIR      46  10  23 S6        29.91S
T OR C         FAIR      41   4  21 W7        29.88F

$$
NMZ519>523-261100-
CENTRAL VALLEYS/CENTRAL HIGHLANDS

CITY           SKY/WX    TMP DP  RH WIND       PRES   REMARKS
ALBUQUERQUE    FAIR      40   9  28 SW9       29.88S WCI  34
DOUBLE EAGLE   FAIR      28   9  44 CALM      29.88S
MORIARTY ARPT  FAIR      37   9  31 SW10      29.87S WCI  29
CLINES CORNERS FAIR      30   6  36 W20       29.84F WCI  17
BELEN          FAIR      35   4  27 CALM      29.89S
SOCORRO        FAIR      37   6  27 SW3       29.89R

$$
NMZ524>526-539-540-261100-
SOUTHCENTRAL MOUNTAINS

CITY           SKY/WX    TMP DP  RH WIND       PRES   REMARKS
RUIDOSO        CLOUDY    39   0  19 SW13      29.89S WCI  32

$$
NMZ527>531-261100-
NORTHEAST HIGHLANDS/NORTHEAST PLAINS

CITY           SKY/WX    TMP DP  RH WIND       PRES   REMARKS
LAS VEGAS      FAIR      27   4  37 SW9       29.80F WCI  18
RATON          FAIR      18   2  49 N7        29.78S WCI   9
CLAYTON        FAIR      29  10  45 N5        29.80S WCI  24

$$
NMZ532>537-261100-
EASTCENTRAL PLAINS

CITY           SKY/WX    TMP DP  RH WIND       PRES   REMARKS
TUCUMCARI      FAIR      33  18  53 W8        29.79S WCI  26
CANNON AFB     FAIR      36  17  46 NW13      29.81F WCI  28
CLOVIS AIRPORT FAIR      28  19  69 W7        29.81F WCI  21

$$
NMZ028-029-538-261100-
SOUTHEAST PLAINS

CITY           SKY/WX    TMP DP  RH WIND       PRES   REMARKS
ROSWELL        FAIR      35  14  42 N5          N/A  WCI  31
ARTESIA        FAIR      39   9  28 CALM      29.84F
CARLSBAD       FAIR      37  22  54 NE5       29.83F WCI  33
HOBBS          FAIR      34  25  69 SW7       29.86F WCI  28


$$




USA.gov is the U.S. government's official web portal to all federal, state and local government web resources and services.